Regional Weather Roundup
Issued by NWS

Home | Current Version | Previous Version | Graphics & Text | Print | Product List | Glossary On
Versions: 1 2 3 4 5 6 7 8 9 10 11 12 13 14 15 16 17 18 19 20 21 22 23 24 25 26 27 28 29 30 31 32 33 34 35 36 37 38 39 40 41 42 43 44 45 46 47 48 49 50
000
ASUS43 KMKX 020900
RWRWI

WISCONSIN REGIONAL WEATHER ROUNDUP
NATIONAL WEATHER SERVICE MILWAUKEE/SULLIVAN WI
400 AM CDT TUE SEP 02 2014

NOTE: "FAIR" INDICATES FEW OR NO CLOUDS BELOW 12,000 FEET WITH NO
SIGNIFICANT WEATHER AND/OR OBSTRUCTIONS TO VISIBILITY.

WIZ001-002-006>008-014>016-023>028-021000-
NORTHWEST WISCONSIN

CITY           SKY/WX    TMP DP  RH WIND       PRES   REMARKS
SUPERIOR ARPT  MOCLDY    54  53  95 SW6       29.79R
ASHLAND        PTCLDY    57  53  86 SW8       29.79R
HAYWARD        PTCLDY    51  50  96 CALM      29.82R
SIREN          MOCLDY    53  52  96 CALM      29.83R
RICE LAKE      CLOUDY    56  55  94 CALM      29.84R
LADYSMITH      PTCLDY    55  54  95 CALM      29.85R
EAU CLAIRE     MOCLDY    59  58  96 S6        29.82S
MENOMONIE      PTSUNNY   59  58  94 CALM      29.83S
NEW RICHMOND   MOCLDY    61  59  93 S6        29.82S
OSCEOLA        CLOUDY    58  58 100 CALM      29.84R
$$

WIZ003>005-009-010-017-018-021000-
NORTH CENTRAL WISCONSIN

CITY           SKY/WX    TMP DP  RH WIND       PRES   REMARKS
WOODRUFF       MOCLDY    52  50  93 CALM      29.83S
RHINELANDER    CLEAR     49  49 100 W5        29.83F
EAGLE RIVER    CLEAR     52  52 100 CALM      29.82S
LAND O LAKES   CLEAR     45  45 100 CALM      29.83S
PHILLIPS       MOCLDY    54  53  97 S3        29.82S
TOMAHAWK       CLEAR     47  46  97 CALM      29.84S FOG
MEDFORD        PTCLDY    53  52  97 CALM      29.84S
MERRILL        FOG       48  48 100 CALM      29.84S VSB 1
$$

WIZ029-030-035-036-043>047-021000-
CENTRAL WISCONSIN

CITY           SKY/WX    TMP DP  RH WIND       PRES   REMARKS
WAUSAU         CLEAR     54  53  97 CALM      29.82F
MOSINEE        CLEAR     54  54 100 CALM      29.86R
MARSHFIELD     FOG       54  53  97 SW6       29.84S VSB 1
STEVENS POINT  CLEAR     52  51  98 S5        29.85R
WAUPACA        CLEAR     57  56  95 CALM      29.84R
WAUTOMA        CLEAR     55  54  94 CALM      29.84F FOG
WISC RAPIDS    FOG       54  54 100 CALM      29.85F VSB 1/2
CAMP DOUGLAS   CLEAR     54  54 100 SE3       29.85S
$$

WIZ011>013-019>022-031-037>040-048>050-021000-
NORTHEAST WISCONSIN

CITY           SKY/WX    TMP DP  RH WIND       PRES   REMARKS
ANTIGO         PTCLDY    49  49 100 CALM      29.84F FOG
STURGEON BAY   CLEAR     59  55  88 SW5       29.82R
GREEN BAY      CLEAR     56  55  97 CALM      29.83R
MANITOWOC      NOT AVBL
APPLETON       CLEAR     59  59 100 W6        29.84R
CLINTONVILLE   CLEAR     54  54 100 CALM      29.83S
OSHKOSH        CLEAR     62  59  90 SW5       29.84R
$$

WIZ032>034-041-042-053>061-021000-
SOUTHWEST WISCONSIN

CITY           SKY/WX    TMP DP  RH WIND       PRES   REMARKS
LA CROSSE      CLEAR     62  60  93 S5        29.84S
SPARTA         MOCLDY    52  51  97 SE3       29.86S
VIROQUA        FAIR      58  58 100 S5        29.88R
BOSCOBEL       FOG       60  59  96 S5        29.87S VSB 1/4
PRAIRIE DU CHI CLEAR     57  56  94 CALM      29.86F
PLATTEVILLE    FAIR      60  59  96 CALM      29.89F
$$

WIZ056-057-062-063-064-067-068-021000-
SOUTH CENTRAL WISCONSIN

CITY           SKY/WX    TMP DP  RH WIND       PRES   REMARKS
BARABOO/DELLS  NOT AVBL
LONE ROCK      NOT AVBL
WATERTOWN      CLEAR     58  58 100 CALM      29.86S
MADISON        CLEAR     59  57  93 CALM      29.86S
MIDDLETON        N/A     60  59  99 CALM      29.88R VSB 1/2
MONROE         PTCLDY    63  61  94 W7        29.88S
JANESVILLE     FOG       63  61  94 CALM      29.87S VSB 1/2
$$

WIZ051-052-058>065-066-070>072-021000-
SOUTHEAST WISCONSIN

CITY           SKY/WX    TMP DP  RH WIND       PRES   REMARKS
MILWAUKEE      PTCLDY    67  63  87 W5        29.86R
WAUKESHA       CLEAR     59  59 100 SW3       29.88R
MILWAUKEE/TIMM CLEAR     63  59  88 CALM      29.86S
RACINE         PTCLDY    66  63  90 W5        29.88R
BURLINGTON     PTCLDY    60  60 100 SW3       29.87R
KENOSHA        FOG       63  62  97 W3        29.87S VSB 1
FOND DU LAC    CLEAR     58  55  90 S5        29.86R
SHEBOYGAN      CLEAR     58  57  97 W5        29.85R
WEST BEND      CLEAR     59  57  94 CALM      29.86R FOG
JUNEAU         FOG       58  58 100 SW3       29.88R VSB 1/2
$$

LSZ147-162-021000-
LAKE SUPERIOR

STATION/POSITION TIME  TEMP    WIND        PRES    WAVE
                       AIR SEA DIR/SP/G            HT/PER
                 (UTC) (F)     (DEG/KT/KT) (MB)    (FT/S)
W MID LAKE BUOY  0750   59 57  230/  6/  8 1006.7R   1/ 3
DEVILS ISLAND    0800   62     230/ 11/ 14 1007.5R
PORT WING        0800   58     180/  6/  8 1008.5R
SAXON HARBOR     0800   59     190/  5/  9 1008.5R
$$

LMZ867-665-643>646-021000-
LAKE MICHIGAN

STATION/POSITION TIME  TEMP    WIND        PRES    WAVE
                       AIR SEA DIR/SP/G            HT/PER
                 (UTC) (F)     (DEG/KT/KT) (MB)    (FT/S)
N MID LAKE BUOY  0750   65 65  250/  8/ 10 1008.0F   2/ 6
NORTHPORT PIER   0800   63     270/  3/  6 1008.5F
KEWAUNEE LAKESHO 0800   61     290/  4/  5 1008.6F
SHEBOYGAN LAKESH 0800   65 48  270/  7/  8 1010.1S
ATWATER BUOY     0800   68     260/  6/  6 1011.9R
MILWAUKEE LAKESH 0800   69     280/  4/  5   N/A
S MID LAKE BUOY  0750   70 70  260/  6/  8 1010.6R   1/ 4
KENOSHA   LAKESH 0800   69     250/  5/  6 1010.8R
$$

TC  - TEMPERATURE IN CELSIUS
VSB - VISIBILITY IN STATUTE MILES
WCI - WIND CHILL INDEX
HX  - HEAT INDEX




USA.gov is the U.S. government's official web portal to all federal, state and local government web resources and services.